Flag for Gambia Weather past 2 weeks in Banjul, Gambia

Now
90 °F

Clear.


Feels Like: 86 °F
Forecast: N/A
Wind: 13 mph from Northeast

Location: Banjul / Yundum

Current Time: Jan 30, 2015 at 5:24:18 PM

Latest Report: Jan 30, 2015 at 5:00 PM


Visibility: 6 mi

Pressure: 29.83 "Hg

Humidity: 22%

Dew point: 46 °F

Location of BanjulLocation

Historic Weather in Banjul — Graph

°F

Banjul temperature yesterday

Maximum temperature yesterday: 91 °F (at 3:00 PM)
Minimum temperature yesterday: 50 °F (at 7:00 AM)
Average temperature yesterday: 76 °F

Past Weeks' High & Low Weather Summary

 TemperatureHumidityPressure
High93 °F (Jan 17, 2:00 PM)78% (Jan 15, 10:00 PM)32.52 "Hg (Jan 15, 10:00 PM)
Low50 °F (Jan 29, 7:00 AM)6% (Jan 30, 2:00 PM)29.77 "Hg (Jan 25, 4:00 PM)
Average75 °F42%29.90 "Hg
* Reported Jan 15 4:00 PM — Jan 30 4:00 PM, Banjul, Weather by CustomWeather, © 2014

Note: Actual official high and low records may vary slightly from our data, if they occured in-between our weather recording intervals... More about our weather records

Advertising

Banjul weather history for previous 24 hours

 ConditionsComfort  
Time TempWeatherWind HumidityBarometerVisibility
4:00 PM
Jan 30
93 °FClear.10 mph10%29.83 "Hg6 mi
3:00 PM91 °FClear.14 mph14%29.86 "Hg6 mi
2:00 PM90 °FClear.17 mph6%29.89 "Hg6 mi
1:00 PM88 °FClear.22 mph10%29.86 "Hg6 mi
12:00 PM84 °FClear.18 mph10%29.89 "Hg6 mi
11:00 AM79 °FClear.17 mph12%29.92 "Hg6 mi
10:00 AM73 °FClear.21 mph14%29.92 "Hg6 mi
9:00 AM70 °FClear.14 mph16%29.92 "Hg6 mi
8:00 AM68 °FClear.10 mphN/AN/A6 mi
7:00 AM66 °FClear.14 mphN/AN/A6 mi
6:00 AM66 °FClear.10 mph35%29.89 "Hg6 mi
5:00 AM68 °FClear.7 mph33%29.89 "Hg6 mi
4:00 AM68 °FClear.8 mph35%29.89 "Hg6 mi
3:00 AM72 °FClear.12 mphN/AN/A6 mi
2:00 AM70 °FClear.7 mph27%29.92 "Hg6 mi
1:00 AM72 °FClear.7 mph27%29.92 "Hg6 mi
12:00 AM73 °FClear.12 mph23%29.92 "Hg6 mi
11:00 PM
Jan 29
75 °FClear.10 mph22%29.92 "Hg6 mi
10:00 PM77 °FClear.7 mph17%29.89 "Hg6 mi
9:00 PM75 °FClear.7 mph34%29.89 "Hg6 mi
8:00 PM77 °FClear.7 mph30%29.86 "Hg6 mi
7:00 PM84 °FClear.7 mph20%29.83 "Hg6 mi
6:00 PM90 °FClear.6 mph9%29.83 "Hg6 mi
5:00 PM91 °FClear.12 mph10%29.83 "Hg6 mi
Weather by CustomWeather, © 2014

See weather overviewHow to use our weather pages